Location: Newark
(34.0635°N, 86.7609°W)
Time: 20:37:52
(UTC+00:00)

N. Korean satellite - Pass Details

Date: 24 December 2019
Orbit: 454 x 507 km, 97.2° (Epoch: 28 January)

Event Time Altitude Azimuth Distance (km) Brightness Sun altitude
Rises 11:37:31 0° 9° (N) 2,482 10.1 -14.6°
Reaches altitude 10° 11:39:34 10° 8° (N) 1,600 9.1 -14.2°
Maximum altitude 11:42:59 76° 283° (WNW) 473 6.3 -13.5°
Drops below altitude 10° 11:46:22 10° 197° (SSW) 1,584 9.2 -12.9°
Sets 11:48:23 0° 196° (SSW) 2,454 10.2 -12.5°
